Tracking 19634 objects as of 22-May-2019
HD Live streaming from Space Station
objects crossing your sky now

METEOR 2-5 DEB

Track METEOR 2-5 DEB now!
10-day predictions


NORAD ID: 35254
Int'l Code: 1979-095V
Perigee: 753.3 km
Apogee: 769.1 km
Inclination: 81.2 °
Period: 99.9 minutes
Semi major axis: 7132 km
RCS: 0.0087 m2 (small)
Launch date: October 31, 1979
Source: Commonwealth of Independent States (former USSR) (CIS)
Launch site: PLESETSK MISSILE AND SPACE COMPLEX (PKMTR)

Note: This is SATELLITE DEBRIS
aabbcc
Your satellite tracking list
Your tracking list is empty




NASA's NSSDC Master Catalog

Two Line Element Set (TLE):
1 35254U 79095V   19141.32703239  .00001236  00000-0  37778-3 0  9991
2 35254  81.2042   1.1792 0011085 337.9718  22.0992 14.41348972811963
Source of the keplerian elements: AFSPC